Regional Weather Roundup
Issued by NWS

Home | Current Version | Previous Version | Text Only | Print | Product List | Glossary Off
Versions: 1 2 3 4 5 6 7 8 9 10 11 12 13 14 15 16 17 18 19 20 21 22 23 24 25 26 27 28 29 30 31 32 33 34 35 36 37 38 39 40 41 42 43 44 45 46 47 48 49 50

000
ASUS43 KBIS 051001
RWRND

NORTH DAKOTA REGIONAL WEATHER ROUNDUP
NATIONAL WEATHER SERVICE BISMARCK ND
400 AM CST THU MAR 05 2015

NOTE: "FAIR" INDICATES FEW OR NO CLOUDS BELOW 12,000 FEET WITH NO
SIGNIFICANT WEATHER AND/OR OBSTRUCTIONS TO VISIBILITY.


NDZ001>003-009>011-017-051100-
NORTHWEST NORTH DAKOTA

CITY           SKY/WX    TMP DP  RH WIND       PRES   REMARKS
WILLISTON      PTCLDY     1  -8  66 S3        30.12F
MINOT          PTCLDY    -1 -11  62 S10       30.17F WCI -17
MINOT AFB      PTCLDY    -4 -12  69 S12       30.16F WCI -22
$$

NDZ018>021-031>035-040>046-051100-
SOUTHWEST NORTH DAKOTA

CITY           SKY/WX    TMP DP  RH WIND       PRES   REMARKS
BISMARCK       PTCLDY    -7 -12  79 E6        30.27F WCI -20
DICKINSON      PTCLDY     2  -5  72 S12       30.09F WCI -15
GARRISON         N/A    -10 -15  78 SE6       30.18F WCI -23
HETTINGER ARPT PTCLDY     3  -6  66 S6        30.15F WCI  -8
$$

NDZ004>008-012>016-024-026-027-054-051100-
NORTHEAST NORTH DAKOTA

CITY           SKY/WX    TMP DP  RH WIND       PRES   REMARKS
GRAND FORKS    CLEAR    -14 -19  79 S7        30.38F WCI -30
GRND FRKS AFB  CLEAR    -13 -20  69 SW6       30.36F WCI -27
DEVILS LAKE    PTCLDY    -9 -18  64 CALM      30.26F
$$

NDZ022-023-025-028>030-036>039-047>053-051100-
SOUTHEAST NORTH DAKOTA

CITY           SKY/WX    TMP DP  RH WIND       PRES   REMARKS
FARGO          PTCLDY    -9 -16  71 S7        30.41F WCI -24
JAMESTOWN      PTCLDY   -10 -17  71 S6        30.30F WCI -23
$$



USA.gov is the U.S. government's official web portal to all federal, state and local government web resources and services.